sat.trackr.live / text

‹ back to catalog

STARLINK-3709

NORAD 52102 · 2022-029Q

PAYLOAD ACTIVE UNKNOWN

§ Identity

Operator
Country
US
Launch date
2022-03-19
Launch site
AFETR
Launch vehicle
Mass (kg)
RCS (m²)

Purposes: comms

External: N2YO · Heavens-Above · Gunter

§ Orbital elements

Epoch: 2026-09-20T00:27:55.092096Z

Period
93.90 min
Inclination
53.1575°
Eccentricity
0.0001290
Mean motion
15.33543728 rev/d
Perigee alt
464.4 km
Apogee alt
466.1 km
Semi-major
6,843.4 km
B*
-9.2342e-5
RAAN
272.1314°
Arg perigee
96.6959°
Mean anomaly
263.4190°
Rev number
25,032

§ Raw data

STARLINK-37091 52102U 22029Q   26263.01938764 -.00003408  00000+0 -92342-4 0  99922 52102  53.1575 272.1314 0001290  96.6959 263.4190 15.33543728250322

JSON: /api/v1/satellites/52102 · /tle

For live sub-satellite position, see the globe view (requires WebGL).

§ Visibility from observer

Set your observer location to see the next 7 days of passes ≥ 10°. The values pass through the URL so the page stays shareable.

No JS? Fill the form by hand. The geolocation button needs JavaScript.